FW8085 Weather Reports


Display with metric or nautical units.
time (UTC)temp
F
wind
direction
speed
MPH
gust
MPH
rain 1hr
in
rain 24hr
in
rain mn
in
humidity
%
barometer
mb
20260510030010 48 17 4.0 5.0 0.00 0.00 0.00 88 1013.3
20260510023022 48 22 4.0 5.0 0.00 0.00 0.00 88 1013.5
20260510021557 49 5 3.0 5.0 0.00 0.00 0.00 86 1013.5
20260510020027 49 5 3.0 5.0 0.00 0.00 0.00 85 1013.6
20260510014613 50 40 4.0 8.0 0.00 0.00 0.00 85 1013.7
20260510013052 49 35 5.0 8.0 0.00 0.00 0.00 86 1013.6
20260510011541 50 20 5.0 6.0 0.00 0.00 0.00 85 1013.8
20260510010014 50 15 5.0 7.0 0.00 0.00 0.00 86 1014.0
20260510004506 49 22 4.0 6.0 0.00 0.00 0.00 86 1014.1
20260510003057 49 16 4.0 5.0 0.00 0.00 0.00 84 1014.3
20260510001532 50 355 3.0 5.0 0.00 0.00 0.00 83 1014.4
20260510000019 51 26 3.0 5.0 0.00 0.00 0.00 82 1014.5
20260509234609 51 29 3.0 7.0 0.00 0.00 0.00 82 1014.6
20260509233042 50 26 4.0 8.0 0.00 0.00 0.00 84 1014.5
20260509231515 50 9 4.0 6.0 0.00 0.00 0.00 83 1014.6
20260509230057 50 5 4.0 5.0 0.00 0.00 0.00 82 1014.6
20260509224535 51 11 4.0 7.0 0.00 0.00 0.00 80 1014.7
20260509223102 52 5 5.0 7.0 0.00 0.00 0.00 80 1014.8
20260509221538 52 5 5.0 7.0 0.00 0.00 0.00 80 1014.8
20260509220033 53 28 3.0 6.0 0.00 0.00 0.00 78 1015.0
20260509214628 54 26 3.0 6.0 0.00 0.00 0.00 77 1014.9
20260509213034 54 17 4.0 6.0 0.00 0.00 0.00 76 1014.8
20260509211519 54 5 5.0 7.0 0.00 0.00 0.00 76 1014.9
20260509210011 54 41 3.0 5.0 0.00 0.00 0.00 76 1015.0
20260509204551 55 38 3.0 5.0 0.00 0.00 0.00 75 1015.0
20260509203056 55 10 4.0 6.0 0.00 0.00 0.00 74 1014.9
20260509201508 55 30 3.0 5.0 0.00 0.00 0.00 73 1014.9
20260509200046 56 31 3.0 5.0 0.00 0.00 0.00 72 1014.9
20260509194533 57 57 3.0 7.0 0.00 0.00 0.00 71 1014.8
20260509193024 58 24 3.0 7.0 0.00 0.00 0.00 69 1014.8
20260509191510 59 35 4.0 7.0 0.00 0.00 0.00 69 1014.5
20260509190034 60 30 4.0 9.0 0.00 0.00 0.00 67 1014.5
20260509184531 60 360 5.0 10.0 0.00 0.00 0.00 68 1014.4
20260509183058 61 22 4.0 7.0 0.00 0.00 0.00 67 1014.5
20260509181540 63 11 4.0 6.0 0.00 0.00 0.00 65 1014.5
20260509180034 64 16 4.0 9.0 0.00 0.00 0.00 61 1014.4
20260509174532 66 22 7.0 11.0 0.00 0.00 0.00 58 1014.3
20260509173020 67 16 7.0 12.0 0.00 0.00 0.00 56 1014.2
20260509171512 67 24 4.0 12.0 0.00 0.00 0.00 59 1014.5
20260509170100 67 42 8.0 14.0 0.00 0.00 0.00 56 1014.3
20260509164530 69 19 7.0 10.0 0.00 0.00 0.00 54 1014.2
20260509163031 70 49 5.0 13.0 0.00 0.00 0.00 53 1014.3
20260509161507 70 26 5.0 13.0 0.00 0.00 0.00 50 1014.1
20260509160051 70 17 5.0 12.0 0.00 0.00 0.00 53 1014.2
20260509154538 71 355 5.0 10.0 0.00 0.00 0.00 52 1014.2
20260509153031 71 17 6.0 9.0 0.00 0.00 0.00 49 1014.4
20260509151507 70 42 5.0 17.0 0.00 0.00 0.00 52 1014.5
20260509150029 71 25 8.0 11.0 0.00 0.00 0.00 50 1014.5
20260509144514 71 36 7.0 12.0 0.00 0.00 0.00 50 1014.6
20260509143008 71 17 2.0 10.0 0.00 0.00 0.00 49 1014.8
20260509141508 70 14 1.0 7.0 0.00 0.00 0.00 54 1015.0
20260509140051 70 13 6.0 11.0 0.00 0.00 0.00 50 1015.0
20260509134544 69 5 3.0 8.0 0.00 0.00 0.00 51 1015.1
20260509133041 70 21 4.0 11.0 0.00 0.00 0.00 51 1015.4
20260509131522 68 24 5.0 7.0 0.00 0.00 0.00 57 1015.5
20260509130030 67 22 6.0 12.0 0.00 0.00 0.00 53 1015.5
20260509124520 68 15 6.0 13.0 0.00 0.00 0.00 52 1015.6
20260509123009 70 360 6.0 13.0 0.00 0.00 0.00 54 1015.7
20260509121528 70 24 4.0 9.0 0.00 0.00 0.00 54 1015.8
20260509120059 69 5 7.0 13.0 0.00 0.00 0.00 51 1016.1
20260509114553 68 38 7.0 13.0 0.00 0.00 0.00 54 1016.2
20260509113027 70 25 8.0 13.0 0.00 0.00 0.00 49 1016.4
20260509111513 70 98 4.0 8.0 0.00 0.00 0.00 53 1016.6
20260509110039 69 12 5.0 10.0 0.00 0.00 0.00 53 1016.7
20260509104519 69 69 6.0 10.0 0.00 0.00 0.00 55 1016.9
20260509103018 68 16 5.0 11.0 0.00 0.00 0.00 56 1016.9
20260509101610 68 5 8.0 10.0 0.00 0.00 0.00 54 1016.9
20260509100041 68 53 6.0 12.0 0.00 0.00 0.00 53 1017.1
20260509094521 67 360 6.0 10.0 0.00 0.00 0.00 56 1017.1
20260509093017 66 25 7.0 12.0 0.00 0.00 0.00 56 1017.2
20260509091548 66 28 8.0 12.0 0.00 0.00 0.00 54 1017.3
20260509090024 66 29 6.0 9.0 0.00 0.00 0.00 58 1017.2
20260509084551 65 38 4.0 11.0 0.00 0.00 0.00 59 1017.3
20260509083029 65 18 6.0 9.0 0.00 0.00 0.00 60 1017.2
20260509081549 64 13 3.0 10.0 0.00 0.00 0.00 64 1017.3
20260509080020 63 76 4.0 12.0 0.00 0.00 0.00 64 1017.4
20260509074551 63 5 4.0 7.0 0.00 0.00 0.00 67 1017.4
20260509073028 62 100 2.0 9.0 0.00 0.00 0.00 67 1017.5
20260509071611 60 135 3.0 10.0 0.00 0.00 0.00 71 1017.5
20260509070031 59 17 2.0 6.0 0.00 0.00 0.00 74 1017.5
20260509064554 57 47 2.0 7.0 0.00 0.00 0.00 75 1017.6
20260509063032 56 126 2.0 5.0 0.00 0.00 0.00 77 1017.5
20260509061552 54 59 1.0 5.0 0.00 0.00 0.00 80 1017.5
20260509060016 52 56 3.0 7.0 0.00 0.00 0.00 81 1017.5
20260509054550 51 68 2.0 6.0 0.00 0.00 0.00 83 1017.5
20260509053019 49 83 2.0 5.0 0.00 0.00 0.00 86 1017.3
20260509051551 48 44 1.0 4.0 0.00 0.00 0.00 87 1017.1
20260509050018 47 26 2.0 4.0 0.00 0.00 0.00 89 1017.1
20260509044702 46 53 2.0 5.0 0.00 0.00 0.00 90 1017.1
20260509043041 45 57 2.0 4.0 0.00 0.00 0.00 90 1017.0
20260509041510 45 54 1.0 3.0 0.00 0.00 0.00 89 1017.1
20260509040043 45 15 1.0 3.0 0.00 0.00 0.00 88 1017.1
20260509034517 46 19 1.0 3.0 0.00 0.00 0.00 88 1017.1
20260509033040 46 5 1.0 3.0 0.00 0.00 0.00 88 1017.1
20260509031515 46 13 1.0 5.0 0.00 0.00 0.00 88 1017.1